This is the latest recevied weather packets stored in our database for station/object SP2NBH-2. If no packets are shown the sender has not sent any weather packets the latest 10 day(s).
| Time | Temp. | Humidity | Pressure | Rain* | Wind** | Luminosity | Snow |
|---|---|---|---|---|---|---|---|
| 1777964686 | 20.56° C | 39% | 1012.7 hPa | - | - | - | - |
| 1777963786 | 19.44° C | 41% | 1012.8 hPa | - | - | - | - |
| 1777962886 | 17.78° C | 46% | 1012.9 hPa | - | - | - | - |
| 1777962019 | 18.33° C | 48% | 1013 hPa | - | - | - | - |
| 1777961986 | 18.33° C | 48% | 1013 hPa | - | - | - | - |
| 1777961086 | 18.89° C | 50% | 1013 hPa | - | - | - | - |
| 1777960186 | 17.22° C | 52% | 1013 hPa | - | - | - | - |
| 1777959287 | 15.56° C | 56% | 1012.9 hPa | - | - | - | - |
| 1777958386 | 15° C | 59% | 1012.9 hPa | - | - | - | - |
| 1777957486 | 15° C | 62% | 1013 hPa | - | - | - | - |
| 1777956586 | 13.33° C | 68% | 1013.1 hPa | - | - | - | - |
| 1777955686 | 12.22° C | 69% | 1013.1 hPa | - | - | - | - |
| 1777954786 | 12.22° C | 71% | 1013.1 hPa | - | - | - | - |
| 1777954115 | 11.67° C | 79% | 1013.1 hPa | - | - | - | - |
| 1777953886 | 11.67° C | 79% | 1013.1 hPa | - | - | - | - |
| 1777943182 | 8.89° C | 73% | 1012.9 hPa | - | - | - | - |
| 1777942282 | 9.44° C | 73% | 1012.9 hPa | - | - | - | - |
| 1777941382 | 10° C | 73% | 1012.9 hPa | - | - | - | - |
| 1777940482 | 10° C | 73% | 1012.9 hPa | - | - | - | - |
| 1777935084 | 10° C | 73% | 1013.3 hPa | - | - | - | - |
| 1777933284 | 11.11° C | 72% | 1013.5 hPa | - | - | - | - |
| 1777932383 | 11.11° C | 73% | 1013.5 hPa | - | - | - | - |
| 1777930584 | 11.67° C | 74% | 1013.6 hPa | - | - | - | - |
| 1777929683 | 11.67° C | 69% | 1013.5 hPa | - | - | - | - |
| 1777926983 | 11.67° C | 70% | 1013.5 hPa | - | - | - | - |
* Rain since midnight (hover to see other rain measurements)
** Current wind speed in m/s (hover to see current wind gust speed)